Regional Weather Roundup
Issued by NWS

Home | Current Version | Previous Version | Graphics & Text | Print | Product List | Glossary On
Versions: 1 2 3 4 5 6 7 8 9 10 11 12 13 14 15 16 17 18 19 20 21 22 23 24 25 26 27 28 29 30 31 32 33 34 35 36 37 38 39 40 41 42 43 44 45 46 47 48 49 50
000
ASUS45 KBOI 262210
RWRID
WEATHER ROUNDUP FOR IDAHO
NATIONAL WEATHER SERVICE BOISE ID
400 PM MDT THU MAR 26 2015

NOTE: "FAIR" INDICATES FEW OR NO CLOUDS BELOW 12000 FEET
WITH NO SIGNIFICANT WEATHER AND/OR OBSTRUCTIONS TO VISIBILITY

IDZ012-014-262300-
SOUTHWEST IDAHO


CITY           SKY/WX    TMP DP  RH WIND       PRES   REMARKS
BOISE          SUNNY     63  39  41 N8        30.32F
CALDWELL       SUNNY     63  39  42 SW3       30.34F
MOUNTAIN HOME  SUNNY     64  38  38 NW7       30.31F
$$

IDZ016-017-262300-
SOUTHCENTRAL IDAHO


CITY           SKY/WX    TMP DP  RH WIND       PRES   REMARKS
BURLEY         SUNNY     60  34  37 W10       30.32F
JEROME         SUNNY     59  34  39 SW10      30.34F
TWIN FALLS     SUNNY     62  36  37 W6        30.33F
$$

IDZ019>023-262300-
SOUTHEAST IDAHO


CITY           SKY/WX    TMP DP  RH WIND       PRES   REMARKS
IDAHO FALLS    MOSUNNY   58  31  35 S13G20    30.33F
POCATELLO      MOSUNNY   59  32  36 W14       30.34F
REXBURG        MOSUNNY   57  31  37 SW13      30.31F
$$

IDZ006-010-011-018-031-032-262300-
CENTRAL IDAHO MOUNTAINS


CITY           SKY/WX    TMP DP  RH WIND       PRES   REMARKS
MCCALL         SUNNY     56  38  50 MISG      30.33F
HAILEY         MOSUNNY   57  36  44 E13G21    30.34F
STANLEY          N/A     57  34  41 N5        30.36F
SALMON         CLOUDY   N/A N/A N/A N7        30.28F
CHALLIS        MOSUNNY   62  32  32 NE6       30.29F
$$

IDZ002-004-006-007-026-262300-
NORTHERN IDAHO


CITY           SKY/WX    TMP DP  RH WIND       PRES   REMARKS
LEWISTON       MOSUNNY   68  48  48 NE12      30.25F
LOWELL           N/A     62  48  60 CALM      30.28F
COEUR D`ALENE  CLOUDY    61  46  59 SE6       30.27F
MULLAN PASS    CLOUDY    40  39  97 VRB7      30.32F
$$


USA.gov is the U.S. government's official web portal to all federal, state and local government web resources and services.